Location: Banff
(51.1667°N, 115.5667°W)
Time: 11:23:29
(UTC+00:00)

Explorer 7 - Pass Details

Date: 03 December 2020
Orbit: 484 x 678 km, 50.3° (Epoch: 19 January)

Event Time Altitude Azimuth Distance (km) Brightness Sun altitude
Exits shadow 13:01:59 38° 202° (SSW) 847 7.6 -21.8°
Drops below altitude 10° 13:05:37 10° 139° (SE) 1,777 10.1 -21.2°
Sets 13:07:51 0° 131° (SE) 2,634 11.3 -20.9°
